• MPC Preparation (Info)

  • MPEC 2004-R29 : 2004 RV2

    The following Minor Planet Electronic Circular may be linked-to from your own Web pages, but must not otherwise be redistributed electronically.

    A form allowing access to any MPEC is at the bottom of this page.


    Read MPEC 2004-R28 Read MPEC 2004-R30


    M.P.E.C. 2004-R29                                Issued 2004 Sept. 7, 18:53 UT
    
         The Minor Planet Electronic Circulars contain information on unusual
             minor planets and routine data on comets.  They are published
       on behalf of Commission 20 of the International Astronomical Union by the
              Minor Planet Center, Smithsonian Astrophysical Observatory,
                              Cambridge, MA 02138, U.S.A.
    
                      Supported in part by the Brinson Foundation
                 Prepared using the Tamkin Foundation Computer Network
    
                                  MPC@CFA.HARVARD.EDU
              URL http://cfa-www.harvard.edu/iau/mpc.html  ISSN 1523-6714
    
                                       2004 RV2
    
    Observations:
         K04R02V* C2004 09 06.18337 20 34 13.64 +28 12 42.7          18.2   ER029704
         K04R02V  C2004 09 06.19453 20 34 10.57 +28 14 06.5          18.5   ER029704
         K04R02V  C2004 09 06.20571 20 34 07.50 +28 15 29.5          18.5   ER029704
         K04R02V  C2004 09 06.22850 20 34 01.22 +28 18 19.1          18.2   ER029704
         K04R02V  C2004 09 06.82045 20 31 39.04 +29 30 06.0                 ER029246
         K04R02V  C2004 09 06.82137 20 31 38.78 +29 30 13.3                 ER029246
         K04R02V  C2004 09 06.82209 20 31 38.60 +29 30 18.1                 ER029246
         K04R02V  C2004 09 06.82333 20 31 38.32 +29 30 26.7                 ER029246
         K04R02V  C2004 09 06.82405 20 31 38.06 +29 30 32.4                 ER029246
         K04R02V  C2004 09 06.87665 20 31 24.63 +29 36 50.8          17.9 V ER029A13
         K04R02V  C2004 09 06.87920 20 31 23.97 +29 37 10.1          18.1 V ER029A13
         K04R02V  C2004 09 06.88293 20 31 22.99 +29 37 36.8          18.0 V ER029A13
         K04R02V  C2004 09 06.88767 20 31 21.70 +29 38 10.5          17.9 V ER029A13
         K04R02V  C2004 09 06.89515 20 31 19.70 +29 39 01.9          18.6 V ER029151
         K04R02V  C2004 09 06.89630 20 31 19.40 +29 39 10.2          18.4 V ER029151
         K04R02V  C2004 09 06.89744 20 31 19.08 +29 39 18.8          18.7 V ER029151
         K04R02V  C2004 09 06.89849 20 31 18.84 +29 39 26.7          18.6 V ER029151
         K04R02V  C2004 09 06.91626 20 31 13.95 +29 41 27.6                 ER029557
         K04R02V  C2004 09 06.91697 20 31 13.74 +29 41 32.3                 ER029557
         K04R02V  C2004 09 06.91765 20 31 13.54 +29 41 37.0                 ER029557
         K04R02V  C2004 09 06.91836 20 31 13.32 +29 41 41.9                 ER029557
         K04R02V  C2004 09 06.91906 20 31 13.15 +29 41 47.3                 ER029557
         K04R02V 2C2004 09 06.92883 20 31 11.22 +29 42 56.4          17.7 R ER029012
         K04R02V 2C2004 09 06.92984 20 31 10.95 +29 43 03.7          17.7 R ER029012
         K04R02V 2C2004 09 06.93082 20 31 10.72 +29 43 10.5          17.8 R ER029012
         K04R02V 2C2004 09 06.93183 20 31 10.43 +29 43 17.8          17.7 R ER029012
         K04R02V  C2004 09 06.93237 20 31 09.97 +29 43 23.4          17.4 R ER029A17
         K04R02V  C2004 09 06.94722 20 31 06.11 +29 45 07.5          17.4 R ER029A17
         K04R02V  C2004 09 07.13871 20 30 22.68 +30 07 51.9          18.3 R ER029649
         K04R02V  C2004 09 07.14051 20 30 22.19 +30 08 04.5          18.1 R ER029649
         K04R02V  C2004 09 07.14586 20 30 20.78 +30 08 42.4          17.8 R ER029649
         K04R02V 5C2004 09 07.15706 20 30 19.62 +30 10 03.8          18.0 R ER029673
         K04R02V 5C2004 09 07.16262 20 30 18.14 +30 10 43.1                 ER029673
         K04R02V 5C2004 09 07.16817 20 30 16.69 +30 11 22.1                 ER029673
         K04R02V 5C2004 09 07.17373 20 30 15.21 +30 12 01.2                 ER029673
         K04R02V  C2004 09 07.17634 20 30 14.85 +30 12 15.9          18.8 R ER029G72
         K04R02V  C2004 09 07.17840 20 30 14.09 +30 12 31.5          18.5 R ER029G72
         K04R02V 5C2004 09 07.18021 20 30 13.50 +30 12 46.8                 ER029673
         K04R02V  C2004 09 07.18046 20 30 13.67 +30 12 43.6          19.2 R ER029G72
         K04R02V  C2004 09 07.18253 20 30 12.99 +30 13 01.5          17.8 R ER029G72
         K04R02V 5C2004 09 07.18484 20 30 12.27 +30 13 19.3                 ER029673
         K04R02V  C2004 09 07.19003 20 30 10.93 +30 13 57.7          18.0 R ER029G72
         K04R02V  C2004 09 07.19638 20 30 08.36 +30 14 40.8          18.4   ER029704
         K04R02V  C2004 09 07.20771 20 30 05.35 +30 16 00.1          18.4   ER029704
         K04R02V  C2004 09 07.21407 20 30 03.54 +30 16 44.9          17.5 V ER029H06
         K04R02V  C2004 09 07.21678 20 30 02.81 +30 17 03.5          17.4 V ER029H06
         K04R02V  C2004 09 07.21704 20 30 03.13 +30 17 07.7          17.7 R ER029651
         K04R02V  C2004 09 07.21832 20 30 02.80 +30 17 16.5          17.7 R ER029651
         K04R02V  C2004 09 07.21899 20 30 02.34 +30 17 17.3          18.4   ER029704
         K04R02V  C2004 09 07.21949 20 30 02.48 +30 17 24.7          17.7 R ER029651
         K04R02V  C2004 09 07.21949 20 30 02.06 +30 17 21.7          17.6 V ER029H06
         K04R02V  C2004 09 07.27682 20 29 46.63 +30 23 46.1          17.8 R ER029734
         K04R02V  C2004 09 07.27693 20 29 46.97 +30 23 56.9          17.8 V ER029H06
         K04R02V  C2004 09 07.27829 20 29 46.65 +30 24 05.7          18.0 V ER029H06
         K04R02V  C2004 09 07.27992 20 29 45.85 +30 24 07.3          17.8 R ER029734
         K04R02V  C2004 09 07.28298 20 29 45.34 +30 24 38.6          17.0 R ER029H06
         K04R02V  C2004 09 07.28394 20 29 45.11 +30 24 44.8          16.9 R ER029H06
         K04R02V  C2004 09 07.28490 20 29 44.86 +30 24 51.0          17.2 R ER029H06
         K04R02V  C2004 09 07.28585 20 29 44.68 +30 24 55.9          16.9 R ER029H06
         K04R02V  C2004 09 07.33612 20 29 31.87 +30 30 33.2          17.6 V ER029H06
         K04R02V  C2004 09 07.34014 20 29 30.83 +30 31 05.2          18.5 V ER029H06
    
    Observer details:
    012 Uccle.  Observer P. De Cat.  0.85-m f/2.5 Schmidt + CCD.
    151 Eschenberg Observatory, Winterthur.  Observer M. Griesser.  0.40-m f/5.8
        Hypergraph + CCD.
    246 Klet Observatory-KLENOT.  Observer M. Tichy.  1.06-m KLENOT Telescope
        + CCD.
    557 Ondrejov.  Observer P. Kusnirak.  0.65-m f/3.6 reflector + CCD.
    649 Powell Observatory, Louisburg.  Observers R. Fredrick, R. Trentman.
        0.75-m Newtonian reflector + CCD.
    651 Grasslands Observatory, Tucson.  Observer J. E. McGaha.  0.62-m f/5.1
        Newtonian reflector + CCD.
    673 Table Mountain Observatory, Wrightwood.  Observer J. Young.  0.6-m
        reflector + CCD.
    704 Lincoln Laboratory ETS, New Mexico.  Observers M. Blythe, F. Shelly,
        M. Bezpalko, R. Huber, L. Manguso, D. Torres, R. Kracke, M. McCleary,
        H. Stange, A. Milner.  Measurers J. Stuart, R. Sayer, J. Evans, J. Kommers.
        1.0-m f/2.15 reflector + CCD.
    734 Farpoint Observatory.  Observer G. Hug.  0.4-m f/6 Schmidt-Cassegrain
        + CCD.
    A13 Observatoire Naef, Marly.  Observer P. Kocher.
    A17 Guidestar Observatory, Weinheim.  Observers M. Emmerich, S. Melchert.
        0.36-m f/6 Schmidt-Cassegrain + CCD.
    G72 University Hills.  Observer J. Foster.  0.33-m reflector + CCD.
    H06 New Mexico Skies Observatory.  Observers J. Sue, R. Hutsebaut.  Measurer
        J. Sue.  0.25-m reflector + CCD.
    
    Orbital elements:
    2004 RV2
    Epoch 2004 July 14.0 TT = JDT 2453200.5                 MPC
    M 313.76427              (2000.0)            P               Q
    n   0.61119348     Peri.   34.10398     +0.98189846     -0.08750247
    a   1.3751505      Node   329.55266     -0.04049620     +0.76939817
    e   0.2179388      Incl.   19.35960     +0.18502830     +0.63274780
    P   1.61           H   20.8           G   0.15           U   7
    Residuals in seconds of arc
    040906 704  0.0   0.1-    040906 557  0.6+  0.4+    040907 704  0.6+  0.8+
    040906 704  0.1+  0.2+    040906 012  0.3+  0.1+    040907 704  0.6+  1.4+
    040906 704  0.4+  0.3-    040906 012  0.2+  0.3+    040907 H06  0.3+  1.1+
    040906 704  0.4+  0.3-    040906 012  0.6+  0.2+    040907 H06  0.2+  0.9+
    040906 246  0.2+  0.5-    040906 012  0.2+  0.4+    040907 651  0.0   1.3+
    040906 246  0.0   0.2+    040906 A17  0.2-  1.3+    040907 651  0.2+  1.3+
    040906 246  0.1+  0.2-    040906 A17  0.2-  1.0+    040907 704  0.4+  0.5+
    040906 246  0.7+  0.5-    040907 649  0.0   0.6+    040907 651  0.1+  1.4+
    040906 246  0.2-  0.1+    040907 649  0.2-  0.6+    040907 H06  0.2-  0.4+
    040906 A13  0.6-  0.1-    040907 649  0.1-  1.0+    040907 734  0.5+  1.3+
    040906 A13  0.4-  1.0+    040907 673  0.1-  1.0+    040907 H06  0.4+  1.3+
    040906 A13  0.4-  1.2+    040907 673  0.3-  1.1+    040907 H06  0.8+  0.8+
    040906 A13  0.9-  1.2+    040907 673  0.0   1.0+    040907 734  0.7+  1.4+
    040906 151  0.1+  0.4+    040907 673  0.1-  1.0+    040907 H06  0.3-  1.7+
    040906 151  0.1+  0.5+    040907 G72 (3.6+  3.0-)   040907 H06  0.1-  1.4+
    040906 151  0.1-  1.1+    040907 G72  0.9+  1.9-    040907 H06  0.1-  1.1+
    040906 151  0.3+  1.5+    040907 673  0.0   1.0+    040907 H06  0.8+  0.5-
    040906 557  1.5+  0.4+    040907 G72 (2.5+  4.3-)   040907 H06 (1.7+  3.5-)
    040906 557  1.2+  0.1+    040907 G72  0.8+  0.9-    040907 H06  1.4+  1.4+
    040906 557  0.9+  0.0     040907 673  0.0   1.1+
    040906 557  0.4+  0.1-    040907 G72  0.1-  2.7+
    
    Ephemeris:
    2004 RV2                 a,e,i = 1.38, 0.22, 19                  q = 1.0755
    Date    TT    R. A. (2000) Decl.     Delta      r     Elong.  Phase     V
    2004 09 02    20 52.76   +18 12.2    0.105    1.093   141.9    34.7    17.5
    2004 09 12    20 13.08   +38 04.8    0.140    1.082   119.3    54.2    18.7
    2004 09 22    19 49.28   +47 49.8    0.186    1.076   108.1    62.4    19.5
    2004 10 02    19 38.58   +53 06.0    0.233    1.076   102.6    65.2    20.1
    2004 10 12    19 38.00   +56 23.7    0.276    1.081   100.1    65.4    20.5
    2004 10 22    19 46.37   +58 46.4    0.315    1.092    99.3    64.1    20.8
    2004 11 01    20 03.37   +60 43.1    0.349    1.107    99.9    62.0    20.9
    2004 11 11    20 29.76   +62 23.0    0.378    1.127   101.3    59.5    21.1
    2004 11 21    21 07.07   +63 46.0    0.403    1.151   103.5    56.6    21.2
    2004 12 01    21 56.11   +64 40.5    0.425    1.177   106.2    53.6    21.3
    2004 12 11    22 55.76   +64 43.2    0.448    1.206   108.9    50.6    21.3
    2004 12 21    00 01.35   +63 32.5    0.474    1.237   111.3    47.8    21.4
    2004 12 31    01 05.59   +61 02.1    0.506    1.269   112.9    45.5    21.6
    2005 01 10    02 03.14   +57 26.4    0.548    1.302   113.4    43.9    21.8
    2005 01 20    02 52.58   +53 14.4    0.600    1.335   112.5    42.9    22.0
    
    Timothy B. Spahr             (C) Copyright 2004 MPC           M.P.E.C. 2004-R29
    

    Read MPEC 2004-R28 Read MPEC 2004-R30


    MPEC number:

    Enter an MPEC number in one of the following forms:

    • 1997-B01 (the full form)
    • J97B01 (the packed version of the full form)
    • B01 (the abbreviated form)